Regional Weather Roundup
Issued by NWS Raleigh/Durham, NC

Home | Current Version | Previous Version | Text Only | Print | Product List | Glossary On
Versions: 1 2 3 4 5 6 7 8 9 10 11 12 13 14 15 16 17 18 19 20 21 22 23 24 25 26 27 28 29 30 31 32 33 34 35 36 37 38 39 40 41 42 43 44 45 46 47 48 49 50
000
ASUS42 KRAH 011610
RWRRAH
NORTH CAROLINA WEATHER ROUNDUP
NATIONAL WEATHER SERVICE RALEIGH NC
1200 PM EDT WED JUL 01 2015

NOTE: "FAIR" INDICATES FEW OR NO CLOUDS BELOW 12,000 FEET WITH NO
SIGNIFICANT WEATHER AND/OR OBSTRUCTIONS TO VISIBILITY.

NCZ001-053-055-056-065-067-011700-
WESTERN NORTH CAROLINA

CITY           SKY/WX    TMP DP  RH WIND       PRES   REMARKS
ASHEVILLE      PTSUNNY   77  60  55 N5        30.07S
JEFFERSON      PTSUNNY   72  55  54 W10       30.09S
MORGANTON      MOSUNNY   83  63  50 SW9       30.05S
HICKORY        SUNNY     83  63  50 W9        30.01R
RUTHERFORDTON  MOSUNNY   81  66  60 SW6       30.01F
MOUNT AIRY     MOSUNNY   82  66  58 W5        30.02S
BOONE          MOSUNNY   72  57  58 NW14G22   30.10S
$$

NCZ021-022-025-041-071-084-088-011700-
CENTRAL NORTH CAROLINA

CITY           SKY/WX    TMP DP  RH WIND       PRES   REMARKS
CHARLOTTE      SUNNY     82  64  54 CALM      30.00S
GREENSBORO     CLOUDY    83  61  47 NW9       29.98S
WINSTON-SALEM  SUNNY     82  61  48 W8        30.00S
RALEIGH-DURHAM CLOUDY    82  69  64 SW6       29.98R
FORT BRAGG     MOSUNNY   79  69  71 SW6       29.98S
FAYETTEVILLE   CLOUDY    79  70  74 SW7       29.99S
BURLINGTON     SUNNY     83  67  58 W7        29.98R
LAURINBURG     CLOUDY    76  69  79 SW3       30.01R HAZE
$$

NCZ011-015-027-028-043-044-047-080-103-011700-
NORTHEASTERN NORTH CAROLINA

CITY           SKY/WX    TMP DP  RH WIND       PRES   REMARKS
ROCKY MT-WILSO SUNNY     83  69  62 SW9       29.96S
GREENVILLE     SUNNY     82  70  65 SW6       29.98S
WASHINGTON     SUNNY     81  69  67 SW5       29.97R
ELIZABETH CITY SUNNY     82  69  64 SW9       29.94R
MANTEO         SUNNY     83  69  62 W10       29.95S
CAPE HATTERAS  SUNNY     81  72  74 SW14      29.97S
$$

NCZ078-087-090-091-093-098-101-011700-
SOUTHEASTERN NORTH CAROLINA

CITY           SKY/WX    TMP DP  RH WIND       PRES   REMARKS
LUMBERTON      CLOUDY    76  70  82 W7        30.00R
GOLDSBORO      MOSUNNY   80  71  73 SW7       29.96R
KENANSVILLE    CLOUDY    78  68  72 SW3       30.00S
NEW BERN       SUNNY     82  70  66 SW5       29.98S
CHERRY POINT   MOSUNNY   85  71  63 W6        29.98S
BEAUFORT       SUNNY     82  72  71 SW16      29.98R
JACKSONVILLE   MOSUNNY   81  70  69 SW9       29.98S
WILMINGTON     PTSUNNY   81  72  74 W9        29.99S
$$



USA.gov is the U.S. government's official web portal to all federal, state and local government web resources and services.